Probability
0 0 0 0 0 0 0 0 0 0 0 0 0 0 0 0 0 0 0 0 0 0 0 0 0 0 0 0 0 0 0 0 0 0 0 0 0 0 0 0 0 0 0
0 0 0 0 0 0 0 0 0 0 0 0 0 0 0 0 0 0 0 0 0 0 0 0 0 0 0 0 0 0 0 0 0 0 0 0 0 0 0 0 0 0 0
0 0 0 0 0 0 0 0 0 0 0 0 0 0 0 0 0 0 0 0 0 0 0 0 0 0 0 0 0 0 0 0 0 0 0 0 0 0 0 0 0 0 0
0 0 0 0 0 0 0 0 0 0 0 0 0 0 0 0 0 0 0 0 0 0 0 0 0 0 0 0 0 0 0 0 0 0 0 0 0 0 0 0 0 0 0
0 0 0 0 0 0 0 0 0 0 0 0 0 0 0 0 0 0 0 0 0 0 0 0 0 0 0 0 0 0 0 0 0 0 0 0 0 0 0 0 0 0 0
0 0 0 0 0 0 0 0 0 0 0 0 0 0 0 0 0 0 0 0 0 0 0 0 0 0 0 0 0 0 0 0 0 0 0 0 0 0 0 0 0 0 0
0 0 0 0 0 0 0 0 0 0 0 0 0 0 0 0 0 0 0 0 0 0 0 0 0 0 0 0 0 0 0 0 0 0 0 0 0 0 0 0 0 0 0
0 0 0 0 0 0 0 0 0 0 0 0 0 0 0 0 0 0 0 0 0 0 0 0 0 0 0 0 0 0 0 0 0 0 0 0 0 0 0 0 0 0 0
0 0 0 0 0 0 0 0 0 0 0 0 0 0 0 0 0 0 0 0 0 0 0 0 0 0 0 0 0 0 0 0 0 0 0 0 0 0 0 0 0 0 0
0 0 0 0 0 0 0 0 0 0 0 0 0 0 0 0 0 0 0 0 0 0 0 0 0 0 0 0 0 0 0 0 0 0 0 0 0 0 0 0 0 0 0
0 0 0 0 0 0 0 0 0 0 0 0 0 0 0 0 0 0 0 0 0 0 0 0 0 0 0 0 0 0 0 0 0 0 0 0 0 0 0 0 0 0 0
0 0 0 0 0 0 0 0 0 0 0 0 0 0 0 0 0 0 0 0 0 0 0 0 0 0 0 0 0 0 0 0 0 0 0 0 0 0 0 0 0 0 0
0 0 0 0 0 0 0 0 0 0 0 0 0 0 0 0 0 0 0 0 0 0 0 0 0 0 0 0 0 0 0 0 0 0 0 0 0 0 0 0 0 0 0
0 0 0 0 0 0 0 0 0 0 0 0 0 0 0 0 0 0 0 0 0 0 0 0 0 0 0 0 0 0 0 0 0 0 0 0 0 0 0 0 0 0 0
0 0 0 0 0 0 0 0 0 0 0 0 0 0 0 0 0 0 0 0 0 0 0 0 0 0 0 0 0 0 0 0 0 0 0 0 0 0 0 0 0 0 0
0 0 0 0 0 0 0 0 0 0 0 0 0 0 0 0 0 0 0 0 0 0 0 0 0 0 0 0 0 0 0 0 0 0 0 0 0 0 0 0 0 0 0
0 0 0 0 0 0 0 0 0 0 0 0 0 0 0 0 0 0 0 0 0 0 0 0 0 0 0 0 0 0 0 0 0 0 0 0 0 0 0 0 0 0 0
0 0 0 0 0 0 0 0 0 0 0 0 0 0 0 0 0 0 0 0 0 0 0 0 0 0 0 0 0 0 0 0 0 0 0 0 0 0 0 0 0 0 0
0 0 0 0 0 0 0 0 0 0 0 0 0 0 0 0 0 0 0 0 0 0 0 0 0 0 0 0 0 0 0 0 0 0 0 0 0 0 0 0 0 0 0
0 0 0 0 0 0 0 0 0 0 0 0 0 0 0 0 0 0 0 0 0 0 0 0 0 0 0 0 0 0 0 0 0 0 0 0 0 0 0 0 0 0 0
0 0 0 0 0 0 0 0 0 0 0 0 0 0 0 0 0 0 0 0 0 0 0 0 0 0 0 0 0 0 0 0 0 0 0 0 0 0 0 0 0 0 0
0 0 0 0 0 0 0 0 0 0 0 0 0 0 0 0 0 0 0 0 0 0 0 0 0 0 0 0 0 0 0 0 0 0 0 0 0 0 0 0 0 0 0
0 0 0 0 0 0 0 0 0 0 0 0 0 0 0 0 0 0 0 0 0 0 0 0 0 0 0 0 0 0 0 0 0 0 0 0 0 0 0 0 0 0 0
0 0 0 0 0 0 0 0 0 0 0 0 0 0 0 0 0 0 0 0 0 0 0 0 0 0 0 0 0 0 0 0 0 0 0 0 0 0 0 0 0 0 0
0 0 0 0 0 0 0 0 0 0 0 0 0 0 0 0 0 0 0 0 0 0 0 0 0 0 0 0 0 0 0 0 0 0 0 0 0 0 0 0 0 0 0
0 0 0 0 0 0 0 0 0 0 0 0 0 0 0 0 0 0 0 0 0 0 0 0 0 0 0 0 0 0 0 0 0 0 0 0 0 0 0 0 0 0 0
Wind_Speed
12 11 10 8 5 2 3 5 7 8 7 6 7 8 8 7 7 7 11 12 13 14 13 11 12 12 12 14 16 15 16 14 13 14 14 15 15 14 11 8 8 10 9
13 13 12 9 6 2 2 5 7 8 8 7 7 7 9 7 7 7 9 11 13 13 11 13 12 13 12 15 15 15 13 13 12 13 14 12 11 7 6 9 10 9 7
15 14 13 10 6 2 2 4 6 7 7 8 6 7 7 7 6 9 8 11 12 13 13 14 13 14 13 13 16 15 16 14 13 11 10 9 8 12 9 11 8 8 9
14 14 12 10 6 3 0 3 5 6 7 8 8 10 9 9 10 9 9 12 12 12 13 14 15 14 13 15 15 15 14 15 13 11 10 11 12 10 9 8 10 13 12
13 13 12 9 6 4 1 3 5 6 7 8 9 10 9 8 8 10 11 11 11 12 13 14 14 15 13 16 17 16 15 12 13 12 11 12 11 12 12 14 12 11 10
12 12 11 9 6 5 2 2 4 5 7 8 9 9 11 11 12 12 11 11 10 10 13 14 14 15 14 15 16 15 16 13 14 12 11 11 10 10 11 12 13 12 12
13 13 12 10 7 5 3 2 4 6 7 8 8 9 10 11 12 12 11 12 10 11 14 15 15 14 15 16 15 14 13 13 13 12 11 10 11 11 11 12 12 14 13
13 13 12 9 7 5 3 2 4 6 7 8 8 8 9 8 8 11 11 11 10 11 14 15 15 16 16 15 14 12 12 11 12 12 13 10 11 11 11 11 12 12 12
14 13 11 9 7 5 3 1 3 5 6 7 8 8 9 9 10 11 10 9 10 11 14 15 15 15 16 15 15 11 12 11 11 11 11 10 10 10 10 10 10 11 12
14 13 11 10 7 6 4 2 2 5 6 7 7 7 9 9 10 10 11 11 12 13 14 14 15 15 15 15 14 13 12 12 11 9 10 10 8 8 8 8 8 8 10
15 13 11 9 7 6 5 2 1 4 6 6 7 8 8 9 10 9 10 11 12 13 13 14 14 15 15 14 13 13 13 13 12 11 11 11 10 8 7 7 7 7 8
14 13 11 10 8 7 6 4 2 4 5 6 7 7 8 9 9 10 10 11 12 12 13 13 13 13 14 13 13 13 12 12 13 13 13 13 11 13 10 8 9 8 9
14 13 11 10 9 7 6 4 3 4 5 6 7 7 8 9 10 10 10 11 11 12 12 13 13 13 13 13 12 11 11 11 12 12 12 13 14 14 12 11 10 9 9
15 14 12 11 9 8 7 5 4 4 4 5 6 7 8 9 10 10 10 10 11 11 12 13 14 13 12 11 10 9 9 9 10 11 12 13 13 14 15 11 12 11 11
16 16 14 11 10 9 7 6 5 4 4 5 6 7 8 9 9 10 10 10 10 11 12 13 14 14 11 11 9 6 7 8 10 11 12 13 16 19 16 11 12 12 10
17 16 14 12 11 10 8 7 5 4 4 5 5 6 7 8 9 10 10 10 10 11 12 12 14 15 12 19 17 7 7 8 10 11 11 13 14 18 20 17 16 14 12
17 17 15 13 12 11 9 8 6 5 5 5 5 6 7 8 9 10 10 10 10 11 11 12 13 14 16 22 22 14 9 10 11 12 12 11 13 18 13 11 14 14 16
16 16 14 13 11 10 9 7 6 6 5 5 5 6 6 8 10 10 10 10 10 10 11 12 13 14 16 22 23 18 10 10 11 11 12 13 15 15 15 11 11 11 9
15 14 14 13 12 11 10 8 7 6 6 6 6 6 6 8 9 10 10 10 10 10 11 11 13 13 15 20 24 20 9 9 11 11 11 14 14 20 21 13 13 13 9
12 12 13 13 12 11 10 9 8 7 7 6 6 6 7 8 10 11 11 10 10 10 11 12 12 13 14 18 22 22 7 8 9 9 11 15 18 20 21 14 13 14 12
13 13 14 13 12 12 11 10 9 8 7 6 6 7 7 8 9 10 10 10 10 11 11 12 12 13 14 16 19 19 7 7 9 8 9 10 20 20 20 17 13 16 15
14 15 13 12 11 12 12 11 10 8 6 6 7 7 8 7 7 10 10 10 10 10 10 11 12 11 12 13 14 14 11 10 8 8 8 11 19 19 19 16 19 21 16
15 14 13 13 12 12 12 11 9 7 7 6 7 7 7 7 7 8 10 9 8 8 9 9 9 11 11 11 12 10 10 11 7 7 12 14 17 16 13 18 21 16 11
16 15 15 14 13 13 13 11 8 8 7 7 6 6 7 7 7 6 7 7 7 8 9 9 9 10 10 10 8 6 6 8 7 6 9 12 13 12 13 13 12 10 11
15 15 15 15 15 14 13 12 10 9 8 7 6 6 6 6 6 6 6 7 7 8 10 8 9 10 11 14 18 11 9 8 8 8 6 6 7 8 9 9 10 10 10
16 16 16 15 14 14 14 13 12 11 9 7 6 4 4 4 5 6 6 6 7 11 11 10 11 10 14 19 18 16 14 13 13 8 6 7 7 8 8 9 9 10 10
Wind_Direction
210 191 188 185 190 203 338 347 345 348 346 342 339 335 333 330 329 332 333 332 332 331 326 322 320 317 312 311 308 307 305 304 305 304 303 298 282 270 265 271 286 279 279
204 193 191 191 198 213 333 338 347 345 349 344 333 326 320 317 320 327 331 333 331 328 324 321 318 315 311 308 308 308 304 302 304 307 308 308 301 269 316 300 280 281 303
209 196 193 193 194 205 341 343 341 338 347 344 333 327 321 320 332 335 332 331 327 324 321 319 318 313 312 308 308 306 301 300 301 294 296 300 306 330 295 285 286 304 303
212 196 190 188 186 169 136 327 331 336 350 347 340 336 331 331 335 333 326 325 323 321 321 320 318 315 312 309 308 304 299 295 292 292 285 278 286 290 300 301 304 297 291
204 190 183 175 164 158 193 320 322 339 353 349 341 333 330 330 327 328 325 326 323 322 323 324 321 318 315 312 309 307 299 291 287 287 287 284 281 270 272 286 293 295 294
192 180 168 162 164 168 194 297 317 347 354 345 338 334 332 332 328 331 328 328 324 323 328 329 325 323 320 316 313 308 301 293 286 283 281 280 279 278 279 285 293 296 297
183 174 171 174 179 185 200 273 323 352 351 340 334 332 331 329 328 329 327 326 324 325 328 329 327 325 323 321 319 313 306 299 291 284 280 277 274 274 274 276 283 289 293
185 181 178 178 180 182 201 264 344 352 342 332 330 326 329 327 323 324 322 321 321 322 322 325 324 325 327 327 326 319 315 304 296 288 283 278 273 270 267 269 277 285 291
188 184 178 179 180 180 193 269 351 341 331 324 323 322 330 327 322 321 320 319 320 320 321 322 325 327 330 331 331 327 324 315 304 294 287 278 273 269 266 264 265 275 289
189 184 180 181 178 177 186 197 339 327 318 315 320 320 324 324 320 318 321 322 322 322 322 325 327 329 330 333 334 333 336 331 325 314 303 294 286 283 281 280 275 273 282
190 185 181 178 174 179 190 196 287 306 308 314 316 320 323 322 319 318 322 323 323 325 326 327 327 329 331 331 331 334 336 337 337 337 333 327 319 315 306 306 309 307 302
188 183 179 177 181 190 192 198 249 288 304 308 311 317 320 320 319 321 323 324 325 327 327 327 327 327 329 326 325 332 336 337 337 337 336 335 331 329 323 323 323 318 312
185 182 181 184 189 193 193 197 231 274 295 300 306 313 319 321 320 321 323 326 327 327 328 329 327 325 324 321 315 325 331 333 333 333 332 331 329 330 329 329 329 323 316
187 187 188 189 190 193 193 197 223 257 282 293 301 311 320 321 318 318 321 325 326 327 328 325 325 323 321 317 300 307 321 327 331 330 329 328 324 325 325 328 331 327 319
193 193 193 189 188 190 192 196 217 241 266 283 297 311 317 316 313 314 318 322 325 325 324 323 323 323 323 318 300 280 313 326 330 330 328 325 326 325 326 328 331 328 320
198 196 194 189 189 190 189 193 209 226 253 271 285 299 308 308 307 308 315 319 322 323 322 320 318 320 322 324 335 329 323 336 336 332 330 325 327 325 326 324 329 329 321
197 195 193 190 187 184 182 190 201 211 238 258 275 289 299 303 305 307 311 316 317 319 318 315 317 318 320 326 331 335 330 336 338 337 336 332 328 330 319 324 331 324 320
196 193 188 182 176 172 175 183 192 211 233 251 265 278 290 296 302 306 310 313 314 315 311 314 316 318 318 324 326 330 321 330 337 340 337 333 329 327 341 339 331 322 320
191 186 179 171 167 170 174 182 197 210 227 243 256 271 281 288 297 302 307 312 312 309 308 313 317 317 317 320 321 333 323 332 338 343 339 335 336 341 351 347 336 331 335
178 170 164 162 167 170 173 188 201 210 224 236 252 268 278 285 293 300 308 312 311 308 313 316 317 315 310 313 317 327 329 335 339 344 342 340 349 352 355 354 345 340 343
169 164 163 168 171 168 176 195 204 213 219 232 253 266 276 286 295 299 304 307 309 311 313 316 320 317 317 319 320 328 345 346 343 345 344 344 353 357 357 358 354 351 350
171 169 170 172 169 172 183 198 208 207 206 227 252 264 275 284 289 298 303 307 311 312 317 321 324 325 329 332 331 340 353 357 348 347 345 347 354 357 357 359 0 358 355
176 175 175 173 174 180 191 203 201 192 199 223 247 264 275 281 286 296 303 308 314 316 318 321 327 330 333 339 346 348 346 352 353 343 344 347 352 353 353 357 1 359 353
181 178 179 181 183 186 196 205 191 184 199 222 244 261 273 284 292 297 299 307 314 316 318 330 332 332 337 350 0 358 344 342 346 339 336 341 346 352 354 356 358 356 355
183 182 187 190 188 185 194 197 192 189 201 218 237 255 266 279 291 298 303 306 307 315 324 330 331 333 340 352 0 9 0 354 352 339 330 337 343 349 353 355 357 356 355
184 186 191 192 188 186 191 192 191 192 198 210 226 241 262 278 292 303 305 299 305 323 333 336 337 334 343 348 357 6 4 0 358 347 339 341 341 344 346 348 351 354 356